Tracking 30696 objects as of 16-Jun-2025
HD Live streaming from Space Station
objects crossing your sky now

STARLINK-31931

Track STARLINK-31931 now!
10-day predictions
STARLINK-31931 is classified as:


NORAD ID: 59864
Int'l Code: 2024-098G
Perigee: 489.6 km
Apogee: 490.8 km
Inclination: 43.0 °
Period: 94.3 minutes
Semi major axis: 6861 km
RCS: Unknown
Launch date: May 24, 2024
Source: United States (US)
Launch site: AIR FORCE EASTERN TEST RANGE (AFETR)
Your satellite tracking list
Your tracking list is empty




NASA's NSSDC Master Catalog

Two Line Element Set (TLE):
1 59864U 24098G   25166.52908742 -.00001768  00000-0 -54759-4 0  9990
2 59864  43.0012 347.1017 0000909 278.6327  81.4422 15.27573485 60330
Source of the keplerian elements: AFSPC